SVR0301 LROP-ULLI

Flight info

Callsign SVR0301
Flight time 2h 50m
Altitude 36000
Route BUKEL DCT REBLA DCT KARIL DCT KENIN DCT KEFIR DCT SUWGI DCT BOKSU DCT LISGO DCT GATVA DCT RISAT/K0826F360 DCT KOLET
Aircraft A320/M-SDE3FGHIRWY/LB1

Departure

Time 2026-05-01 12:23
Airport Bucharest Henri Coandă International Airport (LROP)

Arrival

Time 2026-05-01 15:14
Airport Pulkovo Airport (ULLI)
Time Latitude Longitude Altitude Speed Heading
2026-05-01 12:02 44.57141 26.08058 321 ft 0 kts 173°
2026-05-01 12:15 44.57143 26.08057 320 ft 3 kts 173°
2026-05-01 12:15 44.57169 26.08051 318 ft 4 kts 161°
2026-05-01 12:15 44.57189 26.08034 320 ft 4 kts 110°
2026-05-01 12:16 44.57192 26.08022 318 ft 0 kts 85°
2026-05-01 12:18 44.57193 26.08043 320 ft 5 kts 85°
2026-05-01 12:19 44.57197 26.08107 319 ft 8 kts 83°
2026-05-01 12:19 44.57205 26.08205 320 ft 12 kts 83°
2026-05-01 12:19 44.57215 26.08327 320 ft 13 kts 106°
2026-05-01 12:19 44.57125 26.08372 320 ft 16 kts 174°
2026-05-01 12:20 44.57019 26.08387 320 ft 14 kts 173°
2026-05-01 12:20 44.56916 26.08401 320 ft 16 kts 178°
2026-05-01 12:20 44.56840 26.08285 319 ft 18 kts 243°
2026-05-01 12:20 44.56788 26.08140 320 ft 16 kts 246°
2026-05-01 12:21 44.56756 26.08002 319 ft 14 kts 254°
2026-05-01 12:21 44.56728 26.07867 319 ft 15 kts 253°
2026-05-01 12:21 44.56699 26.07726 320 ft 16 kts 252°
2026-05-01 12:21 44.56610 26.07668 319 ft 16 kts 173°
2026-05-01 12:22 44.56497 26.07691 319 ft 17 kts 167°
2026-05-01 12:22 44.56473 26.07776 319 ft 0 kts 83°
2026-05-01 12:22 44.56476 26.07815 320 ft 20 kts 83°
2026-05-01 12:23 44.56520 26.08375 323 ft 92 kts 84°
2026-05-01 12:23 44.56608 26.09543 320 ft 147 kts 84°
2026-05-01 12:23 44.56735 26.11125 491 ft 174 kts 82°
2026-05-01 12:23 44.56887 26.12844 1215 ft 175 kts 82°
2026-05-01 12:24 44.57019 26.14563 1843 ft 184 kts 82°
2026-05-01 12:24 44.57157 26.16429 2163 ft 206 kts 82°
2026-05-01 12:24 44.57310 26.18525 2538 ft 228 kts 82°
2026-05-01 12:24 44.57481 26.20846 3055 ft 248 kts 82°
2026-05-01 12:25 44.57660 26.23288 3893 ft 254 kts 82°
2026-05-01 12:25 44.58339 26.28160 5719 ft 258 kts 58°
2026-05-01 12:25 44.59510 26.30036 6600 ft 259 kts 34°
2026-05-01 12:26 44.61167 26.31011 7428 ft 262 kts
2026-05-01 12:26 44.64842 26.30918 9165 ft 267 kts 358°
2026-05-01 12:26 44.66706 26.30802 10037 ft 269 kts 358°
2026-05-01 12:27 44.68597 26.30690 10705 ft 279 kts 358°
2026-05-01 12:27 44.72801 26.30460 11165 ft 323 kts 358°
2026-05-01 12:28 44.77406 26.30208 12426 ft 336 kts 358°
2026-05-01 12:28 44.79732 26.29712 13110 ft 342 kts 345°
2026-05-01 12:28 44.83900 26.26341 14423 ft 356 kts 317°
2026-05-01 12:29 44.85439 26.23629 15050 ft 363 kts 304°
2026-05-01 12:29 44.86775 26.20602 15692 ft 365 kts 304°
2026-05-01 12:29 44.89472 26.14466 16981 ft 370 kts 304°
2026-05-01 12:30 44.92205 26.08243 18246 ft 376 kts 304°
2026-05-01 12:30 44.93585 26.05100 18834 ft 378 kts 304°
2026-05-01 12:30 44.94977 26.01938 19352 ft 381 kts 304°
2026-05-01 12:31 44.96383 25.98739 19902 ft 384 kts 303°
2026-05-01 12:31 44.97792 25.95521 20456 ft 386 kts 303°
2026-05-01 12:31 44.99205 25.92282 20986 ft 389 kts 303°
2026-05-01 12:31 45.00610 25.89055 21505 ft 391 kts 303°
2026-05-01 12:32 45.02044 25.85769 22019 ft 394 kts 303°
2026-05-01 12:32 45.04933 25.79141 23001 ft 398 kts 303°
2026-05-01 12:32 45.06391 25.75797 23487 ft 401 kts 304°
2026-05-01 12:33 45.08065 25.72642 23917 ft 402 kts 313°
2026-05-01 12:33 45.10096 25.69915 24267 ft 404 kts 322°
2026-05-01 12:33 45.12298 25.67433 24632 ft 406 kts 322°
2026-05-01 12:33 45.14514 25.64932 25000 ft 408 kts 322°
2026-05-01 12:34 45.16735 25.62421 25358 ft 410 kts 322°
2026-05-01 12:34 45.18971 25.59886 25715 ft 412 kts 322°
2026-05-01 12:34 45.21212 25.57338 26056 ft 414 kts 322°
2026-05-01 12:34 45.23464 25.54779 26397 ft 416 kts 322°
2026-05-01 12:35 45.25727 25.52203 26735 ft 417 kts 321°
2026-05-01 12:35 45.27999 25.49615 27056 ft 419 kts 322°
2026-05-01 12:35 45.30277 25.47011 27374 ft 422 kts 322°
2026-05-01 12:35 45.32539 25.44420 27679 ft 424 kts 322°
2026-05-01 12:36 45.34843 25.41775 27972 ft 426 kts 322°
2026-05-01 12:36 45.37153 25.39122 28255 ft 428 kts 322°
2026-05-01 12:36 45.39478 25.36453 28549 ft 429 kts 322°
2026-05-01 12:36 45.41806 25.33778 28853 ft 431 kts 322°
2026-05-01 12:37 45.44144 25.31088 29113 ft 433 kts 321°
2026-05-01 12:37 45.46493 25.28380 29342 ft 435 kts 321°
2026-05-01 12:37 45.48852 25.25659 29600 ft 437 kts 322°
2026-05-01 12:37 45.51218 25.22929 29847 ft 438 kts 322°
2026-05-01 12:38 45.53582 25.20199 30194 ft 437 kts 322°
2026-05-01 12:38 45.55939 25.17477 30541 ft 435 kts 322°
2026-05-01 12:38 45.58293 25.14755 30822 ft 435 kts 322°
2026-05-01 12:38 45.60648 25.12028 31017 ft 437 kts 322°
2026-05-01 12:39 45.63023 25.09272 31168 ft 440 kts 322°
2026-05-01 12:39 45.65372 25.06541 31386 ft 441 kts 322°
2026-05-01 12:39 45.67749 25.03774 31631 ft 441 kts 322°
2026-05-01 12:39 45.70125 25.01006 31888 ft 441 kts 323°
2026-05-01 12:40 45.72504 24.98233 32163 ft 441 kts 323°
2026-05-01 12:40 45.74883 24.95458 32443 ft 441 kts 323°
2026-05-01 12:40 45.77264 24.92676 32716 ft 441 kts 323°
2026-05-01 12:40 45.79639 24.89899 32985 ft 440 kts 323°
2026-05-01 12:41 45.82009 24.87126 33260 ft 440 kts 323°
2026-05-01 12:41 45.84386 24.84343 33532 ft 440 kts 323°
2026-05-01 12:41 45.86727 24.81597 33801 ft 440 kts 323°
2026-05-01 12:41 45.89093 24.78819 34057 ft 440 kts 323°
2026-05-01 12:42 45.91461 24.76036 34299 ft 440 kts 324°
2026-05-01 12:42 45.93832 24.73250 34494 ft 441 kts 324°
2026-05-01 12:42 45.96207 24.70458 34710 ft 441 kts 323°
2026-05-01 12:42 45.98578 24.67661 34938 ft 441 kts 323°
2026-05-01 12:43 46.00177 24.65768 35086 ft 441 kts 323°
2026-05-01 12:43 46.02543 24.62964 35300 ft 441 kts 323°
2026-05-01 12:43 46.04883 24.60190 35506 ft 440 kts 323°
2026-05-01 12:43 46.07247 24.57383 35704 ft 440 kts 323°
2026-05-01 12:44 46.09610 24.54575 35889 ft 440 kts 323°
2026-05-01 12:44 46.11977 24.51760 36069 ft 440 kts 324°
2026-05-01 12:44 46.16714 24.46136 36272 ft 442 kts 323°
2026-05-01 12:45 46.21465 24.40471 36271 ft 442 kts 323°
2026-05-01 12:45 46.26175 24.34831 36274 ft 443 kts 323°
2026-05-01 12:46 46.30918 24.29149 36273 ft 442 kts 323°
2026-05-01 12:46 46.35665 24.23455 36274 ft 443 kts 323°
2026-05-01 12:47 46.40413 24.17739 36275 ft 443 kts 323°
2026-05-01 12:47 46.45144 24.12025 36273 ft 443 kts 323°
2026-05-01 12:48 46.49878 24.06303 36278 ft 443 kts 323°
2026-05-01 12:48 46.54581 24.00608 36264 ft 443 kts 324°
2026-05-01 12:49 46.59306 23.94870 36269 ft 443 kts 324°
2026-05-01 12:49 46.64030 23.89114 36272 ft 442 kts 324°
2026-05-01 12:50 46.68747 23.83349 36299 ft 442 kts 324°
2026-05-01 12:50 46.73464 23.77567 36287 ft 442 kts 324°
2026-05-01 12:51 46.78174 23.71793 36296 ft 442 kts 324°
2026-05-01 12:52 46.85203 23.63165 36307 ft 442 kts 324°
2026-05-01 12:52 46.92250 23.54466 36301 ft 442 kts 324°
2026-05-01 12:53 46.99276 23.45757 36278 ft 441 kts 325°
2026-05-01 12:54 47.03962 23.39928 36280 ft 441 kts 325°
2026-05-01 12:54 47.10938 23.31225 36286 ft 441 kts 325°
2026-05-01 12:55 47.15613 23.25385 36542 ft 439 kts 326°
2026-05-01 12:55 47.17940 23.22471 36757 ft 438 kts 326°
2026-05-01 12:55 47.20261 23.19560 36938 ft 438 kts 326°
2026-05-01 12:56 47.22578 23.16654 37097 ft 438 kts 326°
2026-05-01 12:56 47.24893 23.13751 37255 ft 438 kts 325°
2026-05-01 12:56 47.27220 23.10827 37289 ft 438 kts 325°
2026-05-01 12:57 47.31852 23.04982 37292 ft 439 kts 325°
2026-05-01 12:57 47.38771 22.96224 37299 ft 438 kts 326°
2026-05-01 12:58 47.43395 22.90359 37306 ft 438 kts 326°
2026-05-01 12:59 47.50326 22.81554 37311 ft 438 kts 326°
2026-05-01 12:59 47.57251 22.72712 37300 ft 438 kts 326°
2026-05-01 13:00 47.64168 22.63838 37320 ft 438 kts 326°
2026-05-01 13:01 47.71049 22.55000 37320 ft 437 kts 326°
2026-05-01 13:02 47.77948 22.46087 37304 ft 437 kts 326°
2026-05-01 13:07 48.30876 21.97573 37318 ft 423 kts 336°
2026-05-01 13:07 48.33408 21.95339 37292 ft 418 kts 341°
2026-05-01 13:08 48.38794 21.92860 37298 ft 401 kts 359°
2026-05-01 13:08 48.44324 21.92703 37301 ft 397 kts
2026-05-01 13:09 48.49852 21.92680 37300 ft 397 kts
2026-05-01 13:09 48.55382 21.92640 37298 ft 397 kts
2026-05-01 13:10 48.60913 21.92616 37306 ft 396 kts
2026-05-01 13:10 48.66391 21.92600 37307 ft 396 kts
2026-05-01 13:11 48.71908 21.92584 37305 ft 396 kts
2026-05-01 13:11 48.77421 21.92564 37292 ft 396 kts
2026-05-01 13:12 48.82937 21.92545 37294 ft 396 kts
2026-05-01 13:12 48.88447 21.92525 37298 ft 396 kts
2026-05-01 13:13 48.93968 21.92505 37302 ft 396 kts
2026-05-01 13:13 48.99488 21.92483 37303 ft 396 kts
2026-05-01 13:14 49.04967 21.92465 37305 ft 396 kts
2026-05-01 13:14 49.10486 21.92441 37305 ft 396 kts
2026-05-01 13:15 49.16001 21.92419 37302 ft 396 kts
2026-05-01 13:15 49.21512 21.92394 37305 ft 396 kts
2026-05-01 13:16 49.27026 21.92374 37313 ft 396 kts
2026-05-01 13:16 49.32534 21.92356 37318 ft 396 kts
2026-05-01 13:17 49.43414 21.93880 37285 ft 392 kts 11°
2026-05-01 13:18 49.51539 21.95407 37302 ft 392 kts 11°
2026-05-01 13:18 49.56950 21.96426 37311 ft 391 kts 11°
2026-05-01 13:19 49.62328 21.97441 37315 ft 391 kts 11°
2026-05-01 13:20 49.70438 21.98965 37301 ft 391 kts 10°
2026-05-01 13:20 49.75859 21.99996 37308 ft 391 kts 11°
2026-05-01 13:21 49.83937 22.01538 37312 ft 392 kts 11°
2026-05-01 13:21 49.89345 22.02570 37319 ft 392 kts 10°
2026-05-01 13:22 49.94762 22.03602 37302 ft 392 kts 11°
2026-05-01 13:22 50.00173 22.04634 37311 ft 392 kts 11°
2026-05-01 13:23 50.05588 22.05671 37296 ft 392 kts 10°
2026-05-01 13:23 50.10995 22.06706 37295 ft 392 kts 11°
2026-05-01 13:24 50.16402 22.07750 37294 ft 391 kts 11°
2026-05-01 13:25 50.24509 22.09322 37276 ft 391 kts 10°
2026-05-01 13:25 50.29915 22.10364 37283 ft 391 kts 10°
2026-05-01 13:26 50.35322 22.11416 37291 ft 391 kts 10°
2026-05-01 13:26 50.40727 22.12474 37292 ft 392 kts 10°
2026-05-01 13:27 50.46134 22.13525 37299 ft 391 kts 10°
2026-05-01 13:27 50.54238 22.15112 37304 ft 391 kts 10°
2026-05-01 13:28 50.61436 22.16517 37307 ft 391 kts 10°
2026-05-01 13:29 50.72252 22.18661 37295 ft 392 kts 10°
2026-05-01 13:31 50.88464 22.21863 37302 ft 392 kts 10°
2026-05-01 13:32 51.01997 22.24570 37268 ft 392 kts 10°
2026-05-01 13:33 51.15556 22.27304 37292 ft 393 kts 10°
2026-05-01 13:34 51.26418 22.29490 37294 ft 393 kts 10°
2026-05-01 13:35 51.34531 22.31130 37299 ft 393 kts 10°
2026-05-01 13:36 51.42679 22.32794 37292 ft 393 kts 10°
2026-05-01 13:36 51.50826 22.34447 37297 ft 393 kts 10°
2026-05-01 13:37 51.56259 22.35555 37304 ft 393 kts 10°
2026-05-01 13:37 51.61691 22.36672 37296 ft 393 kts 10°
2026-05-01 13:38 51.69834 22.38349 37295 ft 393 kts 10°
2026-05-01 13:39 51.75268 22.39477 37302 ft 393 kts 10°
2026-05-01 13:39 51.80696 22.40602 37261 ft 393 kts 10°
2026-05-01 13:40 51.86096 22.41715 37274 ft 394 kts
2026-05-01 13:40 51.91536 22.42851 37281 ft 394 kts 10°
2026-05-01 13:41 51.96985 22.43991 37284 ft 394 kts
2026-05-01 13:41 52.02424 22.45123 37294 ft 394 kts
2026-05-01 13:42 52.07863 22.46256 37292 ft 394 kts
2026-05-01 13:42 52.13305 22.47401 37293 ft 394 kts
2026-05-01 13:43 52.18708 22.48544 37301 ft 394 kts
2026-05-01 13:43 52.24150 22.49700 37300 ft 394 kts
2026-05-01 13:44 52.29591 22.50847 37297 ft 394 kts
2026-05-01 13:44 52.35038 22.52003 37302 ft 394 kts
2026-05-01 13:45 52.40474 22.53157 37306 ft 394 kts
2026-05-01 13:45 52.45914 22.54322 37306 ft 394 kts
2026-05-01 13:46 52.51349 22.55481 37304 ft 394 kts
2026-05-01 13:46 52.56786 22.56647 37304 ft 394 kts
2026-05-01 13:47 52.62183 22.57797 37279 ft 394 kts
2026-05-01 13:47 52.67623 22.58965 37286 ft 394 kts
2026-05-01 13:48 52.73063 22.60141 37294 ft 395 kts
2026-05-01 13:48 52.78510 22.61324 37298 ft 395 kts
2026-05-01 13:49 52.83963 22.62500 37305 ft 395 kts
2026-05-01 13:49 52.89414 22.63680 37308 ft 395 kts
2026-05-01 13:50 52.94883 22.64876 37307 ft 395 kts
2026-05-01 13:50 53.00334 22.66065 37310 ft 395 kts
2026-05-01 13:51 53.05788 22.67261 37309 ft 395 kts
2026-05-01 13:51 53.11239 22.68464 37318 ft 395 kts
2026-05-01 13:52 53.16694 22.69664 37311 ft 395 kts
2026-05-01 13:52 53.22114 22.70867 37316 ft 395 kts
2026-05-01 13:53 53.27570 22.72072 37320 ft 395 kts
2026-05-01 13:53 53.35746 22.73878 37320 ft 395 kts
2026-05-01 13:54 53.41194 22.75098 37317 ft 395 kts
2026-05-01 13:54 53.46644 22.76315 37278 ft 395 kts
2026-05-01 13:55 53.52100 22.77542 37282 ft 395 kts
2026-05-01 13:55 53.57551 22.78773 37289 ft 395 kts
2026-05-01 13:56 53.63010 22.80001 37298 ft 396 kts
2026-05-01 13:56 53.68465 22.81234 37305 ft 396 kts
2026-05-01 13:57 53.73009 22.82258 37305 ft 396 kts
2026-05-01 13:57 53.79392 22.83701 37307 ft 396 kts
2026-05-01 13:58 53.84853 22.84940 37309 ft 396 kts
2026-05-01 13:58 53.90279 22.86174 37310 ft 396 kts
2026-05-01 13:59 53.95735 22.87430 37310 ft 396 kts
2026-05-01 13:59 54.01192 22.88692 37310 ft 396 kts
2026-05-01 14:00 54.06639 22.90079 37309 ft 395 kts 15°
2026-05-01 14:00 54.11802 22.93248 37305 ft 394 kts 21°
2026-05-01 14:01 54.16921 22.96649 37302 ft 395 kts 21°
2026-05-01 14:01 54.22043 23.00065 37301 ft 395 kts 21°
2026-05-01 14:02 54.27168 23.03508 37302 ft 396 kts 21°
2026-05-01 14:02 54.32105 23.07652 37301 ft 397 kts 34°
2026-05-01 14:03 54.36520 23.13369 37313 ft 398 kts 35°
2026-05-01 14:03 54.40932 23.19106 37310 ft 398 kts 35°
2026-05-01 14:04 54.45347 23.24845 37311 ft 398 kts 35°
2026-05-01 14:04 54.49011 23.29621 37311 ft 398 kts 35°
2026-05-01 14:05 54.54128 23.36331 37306 ft 398 kts 35°
2026-05-01 14:05 54.58527 23.42113 37312 ft 398 kts 35°
2026-05-01 14:06 54.62930 23.47909 37312 ft 398 kts 35°
2026-05-01 14:06 54.67332 23.53705 37308 ft 398 kts 35°
2026-05-01 14:07 54.71729 23.59522 37304 ft 398 kts 35°
2026-05-01 14:08 54.78303 23.68258 37304 ft 398 kts 35°
2026-05-01 14:08 54.82697 23.74112 37300 ft 399 kts 35°
2026-05-01 14:09 54.87091 23.79990 37283 ft 399 kts 35°
2026-05-01 14:09 54.91486 23.85893 37277 ft 399 kts 35°
2026-05-01 14:10 54.95876 23.91808 37274 ft 399 kts 35°
2026-05-01 14:10 55.00268 23.97734 37276 ft 399 kts 35°
2026-05-01 14:11 55.04666 24.03683 37271 ft 400 kts 35°
2026-05-01 14:11 55.11271 24.12632 37272 ft 401 kts 35°
2026-05-01 14:12 55.15641 24.18590 37272 ft 401 kts 35°
2026-05-01 14:12 55.20040 24.24604 37275 ft 401 kts 35°
2026-05-01 14:13 55.23721 24.29650 37286 ft 401 kts 35°
2026-05-01 14:13 55.28831 24.36670 37283 ft 401 kts 35°
2026-05-01 14:14 55.32488 24.41700 37280 ft 402 kts 35°
2026-05-01 14:14 55.36886 24.47769 37275 ft 402 kts 36°
2026-05-01 14:15 55.41273 24.53855 37274 ft 402 kts 36°
2026-05-01 14:15 55.45662 24.59958 37278 ft 402 kts 35°
2026-05-01 14:16 55.50058 24.66083 37308 ft 402 kts 35°
2026-05-01 14:16 55.54452 24.72207 37292 ft 402 kts 36°
2026-05-01 14:17 55.58830 24.78349 37289 ft 402 kts 36°
2026-05-01 14:17 55.63206 24.84519 37279 ft 402 kts 36°
2026-05-01 14:18 55.67578 24.90686 37282 ft 402 kts 36°
2026-05-01 14:18 55.71210 24.95813 37272 ft 402 kts 36°
2026-05-01 14:19 55.76289 25.03019 37268 ft 402 kts 36°
2026-05-01 14:19 55.80652 25.09230 37260 ft 402 kts 36°
2026-05-01 14:20 55.87201 25.18586 37261 ft 402 kts 36°
2026-05-01 14:21 55.91563 25.24841 37256 ft 403 kts 36°
2026-05-01 14:21 55.95926 25.31100 37255 ft 403 kts 36°
2026-05-01 14:22 56.02465 25.40543 37250 ft 403 kts 36°
2026-05-01 14:22 56.06823 25.46861 37244 ft 403 kts 36°
2026-05-01 14:23 56.11179 25.53185 37243 ft 403 kts 36°
2026-05-01 14:23 56.15966 25.58197 37240 ft 397 kts 19°
2026-05-01 14:24 56.21248 25.61140 37240 ft 397 kts 16°
2026-05-01 14:24 56.26497 25.64023 37236 ft 397 kts 16°
2026-05-01 14:25 56.31790 25.66940 37240 ft 397 kts 16°
2026-05-01 14:25 56.37074 25.69868 37243 ft 398 kts 16°
2026-05-01 14:26 56.45019 25.74264 37230 ft 398 kts 16°
2026-05-01 14:27 56.50316 25.77219 37235 ft 398 kts 16°
2026-05-01 14:27 56.55612 25.80187 37230 ft 398 kts 16°
2026-05-01 14:28 56.63564 25.84633 37239 ft 399 kts 16°
2026-05-01 14:28 56.68864 25.87615 37232 ft 399 kts 16°
2026-05-01 14:29 56.74167 25.90611 37199 ft 399 kts 16°
2026-05-01 14:30 56.84756 25.96608 37209 ft 399 kts 16°
2026-05-01 14:31 56.92729 26.01148 37216 ft 400 kts 15°
2026-05-01 14:31 56.98049 26.04196 37215 ft 400 kts 15°
2026-05-01 14:32 57.03369 26.07244 37219 ft 401 kts 15°
2026-05-01 14:32 57.08692 26.10293 37220 ft 401 kts 15°
2026-05-01 14:33 57.14013 26.13359 37229 ft 401 kts 15°
2026-05-01 14:33 57.19338 26.16447 37223 ft 401 kts 16°
2026-05-01 14:34 57.24625 26.19528 37221 ft 401 kts 15°
2026-05-01 14:34 57.29954 26.22627 37216 ft 401 kts 15°
2026-05-01 14:35 57.35285 26.25732 37211 ft 401 kts 16°
2026-05-01 14:35 57.40606 26.28855 37223 ft 401 kts 15°
2026-05-01 14:36 57.45927 26.31978 37222 ft 401 kts 15°
2026-05-01 14:36 57.51246 26.35121 37212 ft 401 kts 16°
2026-05-01 14:37 57.56557 26.38354 37210 ft 402 kts 20°
2026-05-01 14:37 57.61448 26.43474 37203 ft 405 kts 29°
2026-05-01 14:38 57.66206 26.49106 37206 ft 405 kts 29°
2026-05-01 14:38 57.70982 26.54745 37187 ft 406 kts 29°
2026-05-01 14:39 57.75757 26.60407 37187 ft 407 kts 29°
2026-05-01 14:39 57.80512 26.66080 37191 ft 407 kts 29°
2026-05-01 14:40 57.85292 26.71804 37186 ft 407 kts 29°
2026-05-01 14:40 57.90070 26.77545 37187 ft 408 kts 29°
2026-05-01 14:41 57.94853 26.83298 37181 ft 408 kts 29°
2026-05-01 14:41 57.99638 26.89075 37176 ft 409 kts 29°
2026-05-01 14:42 58.04428 26.94870 37166 ft 409 kts 29°
2026-05-01 14:42 58.09186 27.00645 37167 ft 409 kts 29°
2026-05-01 14:43 58.13975 27.06482 37166 ft 409 kts 29°
2026-05-01 14:43 58.18758 27.12346 37173 ft 410 kts 29°
2026-05-01 14:44 58.23549 27.18236 37167 ft 410 kts 29°
2026-05-01 14:44 58.30742 27.27091 37169 ft 410 kts 29°
2026-05-01 14:45 58.37903 27.35931 37170 ft 411 kts 29°
2026-05-01 14:46 58.42691 27.41890 37183 ft 411 kts 29°
2026-05-01 14:46 58.49429 27.52111 37172 ft 421 kts 46°
2026-05-01 14:47 58.52630 27.61631 37148 ft 428 kts 54°
2026-05-01 14:47 58.54151 27.66530 36872 ft 427 kts 54°
2026-05-01 14:48 58.57185 27.76325 36345 ft 427 kts 53°
2026-05-01 14:48 58.58701 27.81220 36087 ft 427 kts 53°
2026-05-01 14:48 58.61729 27.91027 35577 ft 427 kts 53°
2026-05-01 14:49 58.64746 28.00843 35075 ft 427 kts 53°
2026-05-01 14:49 58.67765 28.10691 34607 ft 427 kts 53°
2026-05-01 14:50 58.69756 28.17211 34290 ft 427 kts 53°
2026-05-01 14:50 58.73737 28.30350 33572 ft 427 kts 53°
2026-05-01 14:51 58.75236 28.35313 33234 ft 427 kts 54°
2026-05-01 14:51 58.78249 28.45306 31201 ft 433 kts 54°
2026-05-01 14:52 58.81284 28.55408 29238 ft 435 kts 54°
2026-05-01 14:52 58.82775 28.60390 28746 ft 424 kts 54°
2026-05-01 14:52 58.85679 28.70127 27425 ft 413 kts 54°
2026-05-01 14:53 58.87101 28.74912 26793 ft 408 kts 54°
2026-05-01 14:53 58.88504 28.79645 26173 ft 404 kts 54°
2026-05-01 14:53 58.89890 28.84334 25566 ft 400 kts 54°
2026-05-01 14:53 58.91260 28.88981 24964 ft 396 kts 54°
2026-05-01 14:54 58.92599 28.93527 24372 ft 392 kts 54°
2026-05-01 14:54 58.93946 28.98102 23789 ft 389 kts 54°
2026-05-01 14:54 58.95282 29.02643 23163 ft 386 kts 54°
2026-05-01 14:54 58.96602 29.07143 22609 ft 382 kts 54°
2026-05-01 14:55 58.97904 29.11591 22098 ft 377 kts 54°
2026-05-01 14:55 58.99194 29.15992 21594 ft 373 kts 54°
2026-05-01 14:55 59.00610 29.20129 21116 ft 363 kts 46°
2026-05-01 14:55 59.02214 29.23871 20644 ft 358 kts 44°
2026-05-01 14:56 59.03796 29.27556 20227 ft 354 kts 44°
2026-05-01 14:56 59.05342 29.31182 19762 ft 350 kts 45°
2026-05-01 14:56 59.06900 29.34856 19317 ft 346 kts 45°
2026-05-01 14:56 59.08421 29.38452 18880 ft 342 kts 45°
2026-05-01 14:57 59.09906 29.41956 18443 ft 339 kts 45°
2026-05-01 14:57 59.12881 29.48979 17494 ft 332 kts 45°
2026-05-01 14:57 59.14342 29.52443 17049 ft 329 kts 45°
2026-05-01 14:58 59.15792 29.55881 16580 ft 328 kts 45°
2026-05-01 14:58 59.17236 29.59312 16117 ft 326 kts 45°
2026-05-01 14:58 59.18674 29.62729 15655 ft 325 kts 45°
2026-05-01 14:58 59.20109 29.66134 15185 ft 324 kts 45°
2026-05-01 14:59 59.21539 29.69530 14712 ft 323 kts 45°
2026-05-01 14:59 59.22963 29.72927 14232 ft 323 kts 46°
2026-05-01 14:59 59.24384 29.76324 13718 ft 323 kts 46°
2026-05-01 14:59 59.25322 29.78567 13401 ft 322 kts 46°
2026-05-01 15:00 59.28135 29.85312 12419 ft 318 kts 46°
2026-05-01 15:00 59.29531 29.88661 11930 ft 317 kts 46°
2026-05-01 15:00 59.31371 29.93086 11267 ft 315 kts 46°
2026-05-01 15:01 59.32304 29.95336 10931 ft 315 kts 47°
2026-05-01 15:01 59.33665 29.98626 10713 ft 305 kts 47°
2026-05-01 15:01 59.34969 30.01786 10601 ft 292 kts 47°
2026-05-01 15:01 59.36226 30.04833 10409 ft 284 kts 47°
2026-05-01 15:02 59.37442 30.07776 10170 ft 280 kts 47°
2026-05-01 15:02 59.38268 30.09776 10041 ft 278 kts 47°
2026-05-01 15:02 59.39887 30.13698 9866 ft 279 kts 47°
2026-05-01 15:02 59.41104 30.16653 9728 ft 278 kts 47°
2026-05-01 15:03 59.42321 30.19617 9477 ft 278 kts 47°
2026-05-01 15:03 59.43532 30.22572 9115 ft 277 kts 47°
2026-05-01 15:03 59.44737 30.25513 8721 ft 276 kts 47°
2026-05-01 15:03 59.45940 30.28453 8361 ft 275 kts 47°
2026-05-01 15:04 59.47140 30.31393 7979 ft 275 kts 47°
2026-05-01 15:04 59.48333 30.34324 7611 ft 274 kts 48°
2026-05-01 15:04 59.49525 30.37255 7239 ft 274 kts 48°
2026-05-01 15:04 59.50714 30.40182 6862 ft 273 kts 48°
2026-05-01 15:05 59.51901 30.43097 6499 ft 273 kts 48°
2026-05-01 15:05 59.53115 30.45962 6108 ft 271 kts 42°
2026-05-01 15:05 59.54539 30.48350 5830 ft 269 kts 36°
2026-05-01 15:05 59.55994 30.50674 5570 ft 269 kts 36°
2026-05-01 15:06 59.57428 30.52983 5301 ft 269 kts 37°
2026-05-01 15:06 59.58875 30.55317 5023 ft 268 kts 37°
2026-05-01 15:06 59.60316 30.57648 4737 ft 268 kts 37°
2026-05-01 15:06 59.61755 30.59977 4459 ft 265 kts 37°
2026-05-01 15:07 59.63162 30.62253 4204 ft 257 kts 37°
2026-05-01 15:07 59.64531 30.64456 3923 ft 250 kts 34°
2026-05-01 15:07 59.66076 30.65863 3608 ft 241 kts
2026-05-01 15:07 59.67698 30.65793 3394 ft 228 kts 342°
2026-05-01 15:08 59.69085 30.64497 3241 ft 216 kts 322°
2026-05-01 15:08 59.70293 30.62805 3083 ft 209 kts 322°
2026-05-01 15:08 59.71464 30.61171 2931 ft 202 kts 323°
2026-05-01 15:08 59.72587 30.59607 2788 ft 198 kts 323°
2026-05-01 15:09 59.73701 30.58055 2638 ft 193 kts 323°
2026-05-01 15:09 59.74650 30.56280 2536 ft 183 kts 303°
2026-05-01 15:09 59.75151 30.54068 2384 ft 171 kts 285°
2026-05-01 15:09 59.75485 30.51863 2255 ft 163 kts 285°
2026-05-01 15:10 59.75805 30.49755 2171 ft 153 kts 285°
2026-05-01 15:10 59.76374 30.45987 1915 ft 138 kts 285°
2026-05-01 15:10 59.76647 30.44177 1745 ft 136 kts 286°
2026-05-01 15:11 59.76918 30.42383 1581 ft 136 kts 286°
2026-05-01 15:11 59.77461 30.38771 1199 ft 137 kts 286°
2026-05-01 15:11 59.77735 30.36946 1014 ft 138 kts 286°
2026-05-01 15:12 59.78009 30.35120 830 ft 138 kts 286°
2026-05-01 15:12 59.78552 30.31496 466 ft 138 kts 287°
2026-05-01 15:12 59.78825 30.29674 281 ft 137 kts 287°
2026-05-01 15:13 59.79534 30.24917 83 ft 76 kts 286°
2026-05-01 15:14 59.79748 30.23478 84 ft 39 kts 289°
2026-05-01 15:14 59.79865 30.23126 80 ft 15 kts 316°
2026-05-01 15:14 59.79968 30.23080 66 ft 9 kts 64°
2026-05-01 15:15 59.79938 30.23366 80 ft 15 kts 108°
2026-05-01 15:15 59.79882 30.23757 80 ft 13 kts 105°
2026-05-01 15:16 59.79828 30.24122 80 ft 12 kts 108°